Time,TemperatureF,DewpointF,PressureIn,WindDirection,WindDirectionDegrees,WindSpeedMPH,WindSpeedGustMPH,Humidity,HourlyPrecipIn,Conditions,Clouds,dailyrainin,SoftwareType,DateUTC
2017-10-21 00:04:00,46.6,38.0,29.78,NW,319,0.0,0.0,71,0.00,,,0.00,weatherlink.com 1.10,2017-10-21 07:04:00,
2017-10-21 00:19:00,44.8,37.0,29.79,NW,319,1.0,2.0,74,0.00,,,0.00,weatherlink.com 1.10,2017-10-21 07:19:00,
2017-10-21 00:34:00,45.2,37.0,29.79,NW,319,0.0,1.0,74,0.00,,,0.00,weatherlink.com 1.10,2017-10-21 07:34:00,
2017-10-21 00:49:00,46.4,38.0,29.80,NW,319,0.0,1.0,73,0.00,,,0.00,weatherlink.com 1.10,2017-10-21 07:49:00,
2017-10-21 01:05:00,46.1,36.0,29.79,NW,319,1.0,1.0,68,0.00,,,0.00,weatherlink.com 1.10,2017-10-21 08:05:00,
2017-10-21 01:20:00,43.7,37.0,29.79,NW,319,0.0,1.0,77,0.00,,,0.00,weatherlink.com 1.10,2017-10-21 08:20:00,
2017-10-21 01:34:00,41.6,35.0,29.80,NW,320,2.0,5.0,78,0.00,,,0.00,weatherlink.com 1.10,2017-10-21 08:34:00,
2017-10-21 01:49:00,43.3,37.0,29.80,NW,319,1.0,5.0,79,0.00,,,0.00,weatherlink.com 1.10,2017-10-21 08:49:00,
2017-10-21 02:05:00,45.7,39.0,29.80,NW,319,0.0,1.0,77,0.00,,,0.00,weatherlink.com 1.10,2017-10-21 09:05:00,
2017-10-21 02:20:00,45.0,38.0,29.81,NW,319,1.0,2.0,77,0.00,,,0.00,weatherlink.com 1.10,2017-10-21 09:20:00,
2017-10-21 02:35:00,45.4,39.0,29.82,NW,319,0.0,1.0,77,0.00,,,0.00,weatherlink.com 1.10,2017-10-21 09:35:00,
2017-10-21 02:50:00,46.1,39.0,29.82,NW,319,0.0,1.0,76,0.00,,,0.00,weatherlink.com 1.10,2017-10-21 09:50:00,
2017-10-21 03:05:00,47.6,40.0,29.82,NW,319,0.0,0.0,75,0.00,,,0.00,weatherlink.com 1.10,2017-10-21 10:05:00,
2017-10-21 03:21:00,45.8,39.0,29.82,NW,319,0.0,0.0,76,0.00,,,0.00,weatherlink.com 1.10,2017-10-21 10:21:00,
2017-10-21 03:36:00,44.2,38.0,29.82,NW,322,0.0,4.0,79,0.00,,,0.00,weatherlink.com 1.10,2017-10-21 10:36:00,
2017-10-21 03:51:00,44.1,38.0,29.84,NW,322,0.0,0.0,79,0.00,,,0.00,weatherlink.com 1.10,2017-10-21 10:51:00,
2017-10-21 04:07:00,44.3,38.0,29.84,NW,322,0.0,0.0,79,0.00,,,0.00,weatherlink.com 1.10,2017-10-21 11:07:00,
2017-10-21 04:22:00,43.6,38.0,29.84,NW,322,0.0,3.0,80,0.00,,,0.00,weatherlink.com 1.10,2017-10-21 11:22:00,
2017-10-21 04:36:00,45.1,39.0,29.86,NW,322,0.0,0.0,79,0.00,,,0.00,weatherlink.com 1.10,2017-10-21 11:36:00,
2017-10-21 04:51:00,46.7,40.0,29.87,NW,322,0.0,0.0,77,0.00,,,0.00,weatherlink.com 1.10,2017-10-21 11:51:00,
2017-10-21 05:07:00,41.7,36.0,29.88,NW,322,0.0,1.0,79,0.00,,,0.00,weatherlink.com 1.10,2017-10-21 12:07:00,
2017-10-21 05:23:00,41.0,37.0,29.89,NW,322,0.0,0.0,84,0.00,,,0.00,weatherlink.com 1.10,2017-10-21 12:23:00,
2017-10-21 05:37:00,40.9,35.0,29.90,NW,322,0.0,0.0,79,0.00,,,0.00,weatherlink.com 1.10,2017-10-21 12:37:00,
2017-10-21 05:52:00,42.0,37.0,29.91,NW,322,0.0,0.0,81,0.00,,,0.00,weatherlink.com 1.10,2017-10-21 12:52:00,
2017-10-21 06:07:00,41.6,37.0,29.91,NW,322,0.0,0.0,83,0.00,,,0.00,weatherlink.com 1.10,2017-10-21 13:07:00,
2017-10-21 06:23:00,41.7,37.0,29.92,NW,322,0.0,0.0,82,0.00,,,0.00,weatherlink.com 1.10,2017-10-21 13:23:00,
2017-10-21 06:37:00,42.9,36.0,29.92,NW,322,0.0,0.0,75,0.00,,,0.00,weatherlink.com 1.10,2017-10-21 13:37:00,
2017-10-21 06:53:00,43.0,38.0,29.93,NW,322,0.0,0.0,82,0.00,,,0.00,weatherlink.com 1.10,2017-10-21 13:53:00,
2017-10-21 07:08:00,45.9,38.0,29.94,NW,322,0.0,1.0,75,0.00,,,0.00,weatherlink.com 1.10,2017-10-21 14:08:00,
2017-10-21 07:23:00,46.0,38.0,29.95,NW,322,0.0,0.0,74,0.00,,,0.00,weatherlink.com 1.10,2017-10-21 14:23:00,
2017-10-21 07:38:00,44.8,38.0,29.96,NW,321,0.0,0.0,76,0.00,,,0.00,weatherlink.com 1.10,2017-10-21 14:38:00,
2017-10-21 07:53:00,47.5,38.0,29.98,NW,321,0.0,2.0,70,0.00,,,0.00,weatherlink.com 1.10,2017-10-21 14:53:00,
2017-10-21 08:08:00,50.0,38.0,29.99,NW,321,0.0,3.0,63,0.00,,,0.00,weatherlink.com 1.10,2017-10-21 15:08:00,
2017-10-21 08:24:00,50.8,35.0,30.00,NNW,346,0.0,2.0,55,0.00,,,0.00,weatherlink.com 1.10,2017-10-21 15:24:00,
2017-10-21 08:39:00,52.1,32.0,30.01,SSE,148,1.0,5.0,47,0.00,,,0.00,weatherlink.com 1.10,2017-10-21 15:39:00,
2017-10-21 08:54:00,52.3,30.0,30.02,SE,128,1.0,5.0,43,0.00,,,0.00,weatherlink.com 1.10,2017-10-21 15:54:00,
2017-10-21 09:09:00,53.1,29.0,30.03,SSE,150,0.0,3.0,40,0.00,,,0.00,weatherlink.com 1.10,2017-10-21 16:09:00,
2017-10-21 09:23:00,54.0,29.0,30.03,ESE,109,0.0,2.0,39,0.00,,,0.00,weatherlink.com 1.10,2017-10-21 16:23:00,
2017-10-21 09:39:00,54.8,28.0,30.04,ESE,116,0.0,6.0,36,0.00,,,0.00,weatherlink.com 1.10,2017-10-21 16:39:00,
2017-10-21 09:54:00,55.9,28.0,30.05,SE,133,2.0,8.0,35,0.00,,,0.00,weatherlink.com 1.10,2017-10-21 16:54:00,
2017-10-21 10:10:00,56.6,26.0,30.05,SSE,164,1.0,8.0,31,0.00,,,0.00,weatherlink.com 1.10,2017-10-21 17:10:00,
2017-10-21 10:25:00,57.6,27.0,30.05,ESE,115,0.0,4.0,31,0.00,,,0.00,weatherlink.com 1.10,2017-10-21 17:25:00,
2017-10-21 10:39:00,59.3,27.0,30.06,SE,144,1.0,4.0,29,0.00,,,0.00,weatherlink.com 1.10,2017-10-21 17:39:00,
2017-10-21 10:55:00,60.1,25.0,30.07,ESE,123,1.0,3.0,26,0.00,,,0.00,weatherlink.com 1.10,2017-10-21 17:55:00,
2017-10-21 11:11:00,60.6,23.0,30.07,SSE,148,2.0,7.0,24,0.00,,,0.00,weatherlink.com 1.10,2017-10-21 18:11:00,
2017-10-21 11:25:00,60.8,22.0,30.08,SSE,165,2.0,8.0,22,0.00,,,0.00,weatherlink.com 1.10,2017-10-21 18:25:00,
2017-10-21 11:41:00,62.3,19.0,30.08,SE,135,5.0,7.0,19,0.00,,,0.00,weatherlink.com 1.10,2017-10-21 18:41:00,
2017-10-21 11:56:00,62.8,18.0,30.08,SE,131,3.0,9.0,18,0.00,,,0.00,weatherlink.com 1.10,2017-10-21 18:56:00,
2017-10-21 12:12:00,63.4,16.0,30.07,ESE,123,3.0,9.0,16,0.00,,,0.00,weatherlink.com 1.10,2017-10-21 19:12:00,
2017-10-21 12:26:00,64.2,14.0,30.06,SSE,148,4.0,6.0,14,0.00,,,0.00,weatherlink.com 1.10,2017-10-21 19:26:00,
2017-10-21 12:41:00,63.8,15.0,30.06,SE,141,4.0,8.0,15,0.00,,,0.00,weatherlink.com 1.10,2017-10-21 19:41:00,
2017-10-21 12:56:00,65.0,11.0,30.06,South,177,0.0,4.0,12,0.00,,,0.00,weatherlink.com 1.10,2017-10-21 19:56:00,
2017-10-21 13:12:00,66.7,10.0,30.07,SSE,153,1.0,8.0,11,0.00,,,0.00,weatherlink.com 1.10,2017-10-21 20:12:00,
2017-10-21 13:27:00,66.6,6.0,30.07,SSE,151,2.0,10.0,9,0.00,,,0.00,weatherlink.com 1.10,2017-10-21 20:27:00,
2017-10-21 13:42:00,68.1,7.0,30.06,ESE,118,0.0,5.0,9,0.00,,,0.00,weatherlink.com 1.10,2017-10-21 20:42:00,
2017-10-21 13:58:00,68.1,9.0,30.06,SSE,159,2.0,7.0,10,0.00,,,0.00,weatherlink.com 1.10,2017-10-21 20:58:00,
2017-10-21 14:11:00,68.0,13.0,30.06,SE,134,0.0,6.0,12,0.00,,,0.00,weatherlink.com 1.10,2017-10-21 21:11:00,
2017-10-21 14:27:00,68.0,9.0,30.06,ENE,78,1.0,6.0,10,0.00,,,0.00,weatherlink.com 1.10,2017-10-21 21:27:00,
2017-10-21 14:42:00,67.9,9.0,30.06,SSE,163,2.0,8.0,10,0.00,,,0.00,weatherlink.com 1.10,2017-10-21 21:42:00,
2017-10-21 14:57:00,68.9,10.0,30.07,SSE,150,3.0,6.0,10,0.00,,,0.00,weatherlink.com 1.10,2017-10-21 21:57:00,
2017-10-21 15:12:00,67.9,9.0,30.07,SE,134,2.0,5.0,10,0.00,,,0.00,weatherlink.com 1.10,2017-10-21 22:12:00,
2017-10-21 15:27:00,67.8,9.0,30.08,SE,140,1.0,9.0,10,0.00,,,0.00,weatherlink.com 1.10,2017-10-21 22:27:00,
2017-10-21 15:43:00,68.3,12.0,30.08,SE,145,2.0,7.0,11,0.00,,,0.00,weatherlink.com 1.10,2017-10-21 22:43:00,
2017-10-21 15:58:00,68.0,11.0,30.08,SE,132,1.0,8.0,11,0.00,,,0.00,weatherlink.com 1.10,2017-10-21 22:58:00,
2017-10-21 16:13:00,67.0,8.0,30.09,SE,134,3.0,7.0,10,0.00,,,0.00,weatherlink.com 1.10,2017-10-21 23:13:00,
2017-10-21 16:28:00,67.5,9.0,30.09,SE,140,0.0,5.0,10,0.00,,,0.00,weatherlink.com 1.10,2017-10-21 23:28:00,
2017-10-21 16:44:00,66.4,10.0,30.09,SSE,159,2.0,7.0,11,0.00,,,0.00,weatherlink.com 1.10,2017-10-21 23:44:00,
2017-10-21 16:59:00,65.9,12.0,30.10,SE,143,1.0,3.0,12,0.00,,,0.00,weatherlink.com 1.10,2017-10-21 23:59:00,
2017-10-21 17:14:00,65.0,9.0,30.10,SE,144,2.0,4.0,11,0.00,,,0.00,weatherlink.com 1.10,2017-10-22 00:14:00,
2017-10-21 17:29:00,63.3,11.0,30.11,SSE,167,3.0,5.0,13,0.00,,,0.00,weatherlink.com 1.10,2017-10-22 00:29:00,
2017-10-21 17:45:00,61.7,10.0,30.11,SSE,165,0.0,2.0,13,0.00,,,0.00,weatherlink.com 1.10,2017-10-22 00:45:00,
2017-10-21 17:59:00,60.1,10.0,30.12,SSE,165,0.0,2.0,14,0.00,,,0.00,weatherlink.com 1.10,2017-10-22 00:59:00,
2017-10-21 18:14:00,57.4,11.0,30.12,SSE,165,1.0,2.0,16,0.00,,,0.00,weatherlink.com 1.10,2017-10-22 01:14:00,
2017-10-21 18:29:00,56.5,12.0,30.14,SSE,165,1.0,3.0,17,0.00,,,0.00,weatherlink.com 1.10,2017-10-22 01:29:00,
2017-10-21 18:45:00,51.7,13.0,30.14,SSE,165,0.0,2.0,21,0.00,,,0.00,weatherlink.com 1.10,2017-10-22 01:45:00,
2017-10-21 19:00:00,50.7,12.0,30.15,SSE,165,0.0,0.0,21,0.00,,,0.00,weatherlink.com 1.10,2017-10-22 02:00:00,
2017-10-21 19:15:00,50.0,11.0,30.16,SSE,165,1.0,3.0,21,0.00,,,0.00,weatherlink.com 1.10,2017-10-22 02:15:00,
2017-10-21 19:31:00,51.5,11.0,30.16,SSE,165,0.0,2.0,20,0.00,,,0.00,weatherlink.com 1.10,2017-10-22 02:31:00,
2017-10-21 19:46:00,51.1,10.0,30.16,SSE,165,0.0,1.0,19,0.00,,,0.00,weatherlink.com 1.10,2017-10-22 02:46:00,
2017-10-21 20:00:00,52.5,9.0,30.17,SSE,165,0.0,1.0,17,0.00,,,0.00,weatherlink.com 1.10,2017-10-22 03:00:00,
2017-10-21 20:21:00,54.7,8.0,30.17,SSE,165,0.0,2.0,15,0.00,,,0.00,weatherlink.com 1.10,2017-10-22 03:21:00,
2017-10-21 20:33:00,51.7,9.0,30.18,SSE,165,0.0,2.0,18,0.00,,,0.00,weatherlink.com 1.10,2017-10-22 03:33:00,
2017-10-21 21:02:00,50.5,6.0,30.19,SSE,165,0.0,1.0,16,0.00,,,0.00,weatherlink.com 1.10,2017-10-22 04:02:00,
2017-10-21 21:16:00,52.0,5.0,30.19,SSE,165,0.0,1.0,15,0.00,,,0.00,weatherlink.com 1.10,2017-10-22 04:16:00,
2017-10-21 21:31:00,48.0,6.0,30.19,SSE,165,0.0,2.0,18,0.00,,,0.00,weatherlink.com 1.10,2017-10-22 04:31:00,
2017-10-21 21:47:00,50.1,7.0,30.20,SSE,165,0.0,0.0,17,0.00,,,0.00,weatherlink.com 1.10,2017-10-22 04:47:00,